Probability
1 0 0 0 0 0 0 0 0 0 0 0 0 0 0 0 0 0 0 0 0 0 0 0 0 0 0 0 0 0 0 0 0 0 0 0 0 0 0 0 0 0 0
2 1 0 0 0 0 0 0 0 0 0 0 0 0 0 0 0 0 0 0 0 0 0 0 0 0 0 0 0 0 0 0 0 0 0 0 0 0 0 0 0 0 0
3 2 1 0 0 0 0 0 0 0 0 0 0 0 0 0 0 0 0 0 0 0 0 0 0 0 0 0 0 0 0 0 0 0 0 0 0 0 0 0 0 0 0
3 3 1 1 0 0 0 0 0 0 0 0 0 0 0 0 0 0 0 0 0 0 0 0 0 0 0 0 0 0 0 0 0 0 0 0 0 0 0 0 0 0 0
2 2 2 2 1 0 0 0 0 0 0 0 0 0 0 0 0 0 0 0 0 0 0 0 0 0 0 0 0 0 0 0 0 0 0 0 0 0 0 0 0 0 0
1 2 2 3 2 1 1 0 0 0 0 0 0 0 0 0 0 0 0 0 0 0 0 0 0 0 0 0 0 0 0 0 0 0 0 0 0 0 0 0 0 0 0
1 1 2 3 3 3 2 1 0 0 0 0 0 0 0 0 0 0 0 0 0 0 0 0 0 0 0 0 0 0 0 0 0 0 0 0 0 0 0 0 0 0 0
2 3 4 4 3 3 3 2 1 0 0 0 0 0 0 0 0 0 0 0 0 0 0 0 0 0 0 0 0 0 0 0 0 0 0 0 0 0 0 0 0 0 0
5 5 5 4 4 4 3 2 1 0 0 0 0 0 0 0 0 0 0 0 0 0 0 0 0 0 0 0 0 0 0 0 0 0 0 0 0 0 0 0 0 0 0
7 6 5 5 5 5 4 2 1 0 0 0 0 0 0 0 0 0 0 0 0 0 0 0 0 0 0 0 0 0 0 0 0 0 0 0 0 0 0 0 0 0 0
7 6 5 6 7 6 5 2 1 0 0 0 0 0 0 0 0 0 0 0 0 0 0 0 0 0 0 0 0 0 0 0 0 0 0 0 0 0 0 0 0 0 0
7 5 5 7 9 8 5 4 3 1 0 0 0 0 0 0 0 0 0 0 0 0 0 0 0 0 0 0 0 0 0 0 0 0 0 0 0 0 0 0 0 0 0
6 7 7 9 11 10 7 7 7 4 2 1 0 0 0 0 0 0 0 0 0 0 0 0 0 0 0 0 0 0 0 0 0 0 0 0 0 0 0 0 0 0 0
6 9 12 12 13 11 10 10 10 9 7 4 2 2 2 1 0 0 0 0 0 0 0 0 0 0 0 0 0 0 0 0 0 0 0 0 0 0 0 0 0 0 0
8 11 14 15 15 15 15 15 13 12 11 8 6 6 5 4 2 1 0 0 0 0 0 0 0 0 0 0 0 0 0 0 0 0 0 0 0 0 0 0 0 0 0
11 13 16 17 17 18 20 19 17 14 13 12 11 10 9 8 7 4 2 1 0 0 0 0 0 0 0 0 0 0 0 0 0 0 0 0 0 0 0 0 0 0 0
14 15 16 18 18 19 22 22 20 17 15 14 14 13 11 11 11 7 4 2 1 1 0 0 0 0 0 0 0 0 0 0 0 0 0 0 0 0 0 0 0 0 0
17 17 17 17 17 18 21 22 22 20 18 16 16 15 13 12 12 9 6 3 2 1 1 0 0 0 0 0 0 1 1 1 0 0 0 0 0 0 0 0 0 0 0
20 19 18 17 16 18 20 21 22 21 18 16 16 16 15 14 12 10 7 5 3 2 2 1 1 0 1 1 2 1 2 3 2 0 0 0 0 0 0 0 0 0 0
23 24 23 20 19 20 21 21 22 20 17 15 16 16 16 14 11 9 7 6 4 3 3 3 2 1 2 4 4 3 3 4 4 1 0 0 1 1 1 0 0 0 0
24 25 25 22 20 20 19 19 19 19 18 17 16 15 15 13 9 7 5 5 5 4 4 4 3 2 3 6 7 6 5 5 4 3 2 2 2 2 2 1 0 0 0
24 24 22 20 18 16 12 10 13 17 18 18 17 16 14 11 7 5 3 2 2 3 5 4 3 3 4 6 7 6 5 4 4 5 5 3 2 2 2 1 0 0 0
25 23 20 18 17 12 6 3 5 12 16 18 18 18 14 11 9 8 5 2 2 2 3 3 2 2 3 4 4 3 3 2 3 5 5 4 3 2 2 1 1 0 0
24 24 22 20 17 11 4 1 2 7 14 18 19 18 16 13 11 9 8 7 7 4 2 1 1 1 1 1 1 1 1 1 2 3 4 3 3 3 2 2 1 0 0
22 24 25 23 20 13 5 0 1 5 12 17 19 18 16 13 8 6 8 11 11 6 2 0 0 0 0 0 0 0 0 0 1 2 3 3 3 3 3 2 1 0 0
22 24 25 24 24 18 7 1 1 6 12 16 19 19 14 9 5 4 8 11 11 7 3 1 0 0 0 0 0 0 0 0 0 2 4 4 2 2 2 1 0 0 0
Wind_Speed
4 4 3 2 3 4 4 3 3 4 3 3 2 3 3 4 4 4 7 7 6 6 6 6 6 6 6 6 5 5 5 5 5 5 5 5 6 6 6 6 6 6 5
4 4 4 3 3 3 2 2 4 3 2 2 2 3 2 4 4 4 6 8 7 6 5 5 5 5 5 6 5 5 5 5 5 5 5 4 4 5 5 5 5 5 5
5 4 4 4 3 3 3 2 3 2 3 3 3 3 3 3 4 4 4 4 7 8 6 5 4 4 5 5 5 5 5 5 5 5 5 5 5 5 5 5 5 5 5
5 4 4 4 4 4 4 3 3 3 2 2 3 2 3 3 4 4 4 3 3 5 8 6 4 4 4 4 5 5 5 5 5 5 5 5 6 6 6 6 6 5 5
6 5 3 3 4 4 3 4 3 2 2 2 3 3 2 3 3 3 4 4 3 3 4 8 6 4 4 4 5 5 5 5 4 4 5 5 6 6 6 5 5 5 5
6 5 4 4 5 4 3 2 2 2 2 2 2 3 2 2 3 3 4 4 4 4 4 5 6 6 5 4 4 5 5 5 5 4 4 5 5 5 5 5 5 5 6
7 5 4 5 5 4 4 4 4 4 3 2 2 3 3 3 3 3 3 3 4 4 3 3 3 3 5 7 5 4 4 5 4 4 4 5 5 5 5 5 5 5 6
7 7 5 5 5 4 4 4 4 3 3 3 3 3 3 4 4 4 4 4 3 4 4 5 3 3 2 4 6 6 5 5 5 5 5 4 4 4 4 5 5 5 5
8 7 7 5 5 6 5 5 5 6 3 3 3 3 2 2 3 4 4 3 3 3 4 4 5 4 4 3 5 8 6 5 5 6 5 5 4 4 4 4 5 5 5
9 8 7 6 5 5 4 6 6 4 4 4 3 3 3 3 2 3 5 5 5 5 4 4 4 5 4 4 3 4 6 5 5 6 6 6 6 6 6 6 6 7 7
9 9 8 7 6 5 5 4 4 5 4 4 4 4 3 3 4 3 2 3 4 5 5 5 4 4 4 4 4 6 8 6 5 6 6 6 6 6 6 6 7 8 8
7 9 9 7 7 5 5 5 5 6 5 4 4 4 4 4 4 3 3 3 3 3 4 3 4 4 4 5 5 8 8 7 6 6 6 6 6 7 7 7 8 8 8
7 9 9 8 7 6 6 6 6 5 6 5 6 5 4 4 3 3 4 3 2 2 3 5 5 4 5 4 4 8 8 8 7 7 7 7 7 7 7 8 8 9 9
7 8 9 8 8 8 7 6 6 6 5 6 7 5 4 4 4 4 4 4 4 4 4 4 3 4 3 4 3 7 6 10 9 8 8 8 8 8 8 8 8 9 9
7 9 9 9 9 9 8 7 6 6 6 7 7 7 6 4 5 4 4 4 5 5 3 4 4 3 3 3 3 5 5 8 10 9 9 9 9 9 8 9 9 9 9
9 9 9 10 10 9 9 8 7 7 7 7 5 5 5 6 4 5 4 4 5 6 5 2 2 2 1 3 4 5 5 7 10 10 9 9 9 10 10 9 9 10 10
10 10 10 10 10 10 9 9 9 8 9 8 7 7 7 6 5 5 5 5 5 5 5 4 2 1 2 5 3 5 6 6 7 12 11 10 10 10 10 10 10 11 11
10 10 10 10 10 10 9 10 10 9 9 9 8 7 7 6 6 6 4 5 5 4 6 6 4 4 5 5 5 6 6 6 6 9 11 10 10 11 11 11 11 11 11
11 10 10 10 10 10 10 9 9 9 9 9 8 8 8 7 7 6 6 6 5 5 5 6 6 3 4 5 5 7 7 5 8 6 11 12 12 11 11 11 12 12 12
11 11 11 11 10 10 10 10 10 9 9 9 8 8 8 8 8 7 6 6 5 5 5 6 6 5 5 5 5 6 6 6 7 7 6 6 9 12 13 13 12 12 11
11 11 11 11 11 10 10 11 10 10 9 9 8 8 8 7 5 5 5 6 6 6 6 6 6 6 5 4 5 5 6 5 6 6 6 7 7 8 9 13 14 12 11
10 10 11 11 11 9 9 10 10 10 9 10 9 9 8 9 9 8 7 6 6 7 7 6 6 6 6 6 5 6 6 6 6 4 5 7 6 6 6 7 5 8 9
10 10 10 10 11 10 10 12 12 9 9 9 9 8 8 8 9 10 10 10 9 9 8 8 9 8 7 5 6 7 6 7 7 6 5 8 7 7 7 5 6 7 8
9 10 10 11 10 10 12 13 12 12 10 10 10 10 9 8 8 8 8 9 9 9 9 9 8 7 7 5 5 7 7 7 8 7 6 8 7 7 6 6 6 9 9
10 10 10 11 11 10 12 14 13 11 9 10 9 9 8 8 6 6 8 9 8 7 7 7 6 5 4 4 5 6 6 7 8 6 4 6 7 7 7 8 5 9 10
9 9 9 10 10 10 11 14 14 9 8 7 7 7 7 6 5 7 8 8 8 6 5 5 6 6 7 7 7 7 7 7 7 7 3 4 7 7 8 6 5 5 6
Wind_Direction
156 144 138 153 159 145 157 154 133 121 129 136 128 119 118 103 112 117 119 134 143 142 139 139 143 145 145 143 145 145 144 145 145 148 149 150 153 154 159 161 157 155 154
154 155 161 171 160 160 138 155 132 147 147 120 131 124 135 124 120 132 133 141 147 147 150 154 154 156 159 160 160 161 161 158 155 155 158 161 166 168 163 164 165 166 170
161 175 167 182 161 155 152 172 141 153 163 153 136 140 133 125 122 127 132 139 150 152 152 153 155 159 164 167 167 167 172 171 172 176 180 181 185 184 178 179 179 181 185
178 187 183 177 163 180 178 168 187 175 154 155 148 154 127 134 135 152 149 149 145 145 153 149 155 162 170 176 176 174 179 182 181 185 191 195 199 198 195 195 196 197 201
184 200 190 160 191 193 191 199 160 194 172 169 162 153 148 145 149 160 148 151 145 154 147 148 161 167 180 185 184 179 182 187 187 194 199 202 203 204 205 207 204 205 213
188 202 184 178 207 196 195 194 165 192 195 194 197 137 156 148 177 157 183 162 161 173 170 153 169 169 174 183 187 187 187 190 193 200 203 206 208 206 209 212 211 211 216
183 205 197 178 214 201 205 200 206 189 193 187 194 178 173 175 173 172 191 181 169 172 168 171 190 168 164 173 184 197 201 196 194 195 203 210 213 210 211 213 214 217 223
190 196 207 200 199 197 204 211 213 223 195 191 226 212 192 174 191 181 177 189 185 182 185 187 176 198 227 169 153 183 197 201 200 202 203 205 209 211 212 215 214 216 224
197 206 198 212 200 212 199 211 209 216 215 199 230 260 247 197 169 168 194 190 192 204 205 183 193 191 213 203 168 171 183 199 208 211 210 208 207 205 208 217 219 219 225
200 201 204 205 210 218 199 213 203 214 217 215 197 242 295 344 272 175 186 183 195 208 218 220 199 192 204 207 170 141 168 193 209 216 215 212 212 213 218 228 235 236 237
202 204 202 201 206 216 212 225 197 224 220 225 222 214 217 219 248 259 213 191 197 203 205 214 218 211 204 210 202 174 170 189 205 215 215 215 214 215 225 235 244 247 248
200 202 204 202 206 212 207 212 213 214 235 234 243 237 234 236 237 243 244 225 212 203 205 216 223 217 218 216 206 147 174 194 207 214 216 215 215 220 230 241 250 251 254
198 198 204 203 206 207 210 209 211 226 219 220 231 237 242 252 256 255 261 259 248 212 199 221 217 222 224 221 189 161 190 200 210 216 217 218 222 227 233 242 248 252 257
204 193 200 203 205 206 207 205 217 214 215 222 230 240 247 243 246 248 258 267 257 237 213 226 213 216 231 230 160 187 204 193 207 214 217 222 226 231 236 241 244 248 253
206 197 198 201 205 205 206 206 217 217 214 221 222 213 234 236 239 245 252 263 273 274 252 200 224 202 223 237 163 224 233 184 198 210 219 225 230 234 239 241 242 245 248
205 201 204 204 205 205 206 210 211 209 215 221 233 236 237 242 232 236 243 250 262 277 283 271 223 227 237 258 185 234 243 176 200 210 219 227 231 235 239 241 242 245 247
204 205 206 208 207 207 207 208 217 207 215 217 219 220 224 244 241 235 230 238 246 257 267 270 247 189 219 263 231 241 236 233 213 198 213 225 231 235 239 241 243 245 248
208 209 209 210 210 208 207 209 214 211 213 215 217 221 223 216 221 245 240 240 245 257 263 269 265 234 222 239 241 250 249 240 252 184 199 219 229 234 239 242 244 245 248
209 209 208 211 212 210 208 210 213 214 215 217 218 219 219 217 219 224 234 241 240 234 244 260 256 252 243 236 240 245 251 255 262 206 195 211 221 231 239 241 242 244 247
207 208 209 211 211 211 210 210 209 212 215 216 216 218 219 218 218 220 222 232 243 248 238 251 257 247 240 230 242 251 250 231 251 263 245 230 217 221 232 235 236 238 242
209 209 210 211 211 211 212 209 209 208 210 214 215 216 217 217 225 231 241 228 228 239 245 246 252 252 247 240 246 256 264 267 251 255 265 259 237 235 224 224 226 231 238
210 210 210 211 212 214 195 197 211 210 209 213 214 215 213 206 210 217 241 252 254 247 255 261 258 258 263 261 263 269 273 272 270 253 263 272 272 268 262 257 200 201 227
204 207 209 210 215 211 189 190 204 218 217 216 215 214 223 211 203 217 212 218 231 238 245 260 268 272 270 264 271 267 266 279 285 294 279 276 273 268 267 263 180 205 230
205 206 209 211 213 207 188 191 196 215 223 221 219 217 222 222 216 222 226 226 229 223 222 232 254 267 274 285 271 268 279 271 264 257 257 271 278 278 279 278 205 207 228
208 209 210 211 212 204 186 187 194 214 218 220 220 218 219 219 199 199 227 233 235 235 219 222 242 260 292 295 285 272 265 266 270 268 238 257 279 287 282 275 250 198 218
208 210 211 212 213 210 186 187 198 217 214 213 210 211 208 219 183 185 221 231 235 241 246 214 214 229 241 240 230 248 264 268 275 278 277 269 280 290 287 279 286 277 254